1496131200.34,26495,20.88,74194.0,21.79,2.51,0.59,0,*76
1496131201.59,26496,20.88,74198.8,21.73,2.09,0.13,0,*7C
1496131202.79,26497,20.88,74196.8,21.71,2.31,0.33,0,*76
1496131204.05,26498,20.88,74196.3,21.69,2.43,0.51,0,*71
1496131205.3,26499,20.88,74198.0,21.65,2.25,0.17,0,*7E
1496131206.49,26500,20.88,74198.0,21.65,1.79,0.01,0,*42
1496131207.73,26501,20.88,74200.0,21.61,0.55,-1.29,0,*5E
1496131208.94,26502,20.88,74196.5,21.53,0.29,-1.51,0,*58
1496131210.19,26503,20.88,74202.3,21.47,1.29,-0.37,0,*5C
1496131211.42,26504,20.88,74200.8,21.45,1.29,-0.33,0,*5D
1496131212.67,26505,20.88,74202.5,21.43,1.13,-0.49,0,*5E
1496131213.91,26506,20.88,74202.5,21.39,1.71,-0.29,0,*52
1496131215.14,26507,20.88,74202.8,21.35,1.63,-0.65,0,*54
1496131216.39,26508,20.88,74204.8,21.35,1.41,-1.39,0,*63
1496131217.56,26509,20.88,74200.8,21.29,0.01,-3.39,0,*68
1496131218.78,26510,20.88,74204.3,21.23,-0.73,-4.53,0,*79
1496131219.96,26511,20.88,74206.0,21.21,-1.25,-5.43,0,*48
1496131221.15,26512,20.88,74204.3,21.17,-1.17,-4.99,0,*49
1496131222.37,26513,20.88,74206.3,21.15,-2.23,-5.55,0,*4F
1496131223.63,26514,20.88,74198.8,21.11,-2.47,-5.73,0,*4A
1496131224.81,26515,20.88,74198.8,21.05,-3.19,-6.01,0,*42
1496131226.07,26516,20.88,74202.3,21.03,-2.59,-5.65,0,*43
1496131227.3,26517,20.88,74202.0,20.99,-2.51,-5.47,0,*48
1496131228.58,26518,20.88,74200.8,20.99,-1.99,-5.19,0,*4B
1496131229.85,26519,20.88,74204.5,20.95,-2.03,-5.23,0,*4F
1496131231.11,26520,20.88,74202.5,20.95,-2.59,-5.11,0,*4B
1496131232.36,26521,20.88,74202.5,20.95,-3.07,-4.85,0,*4C
1496131233.58,26522,20.88,74202.5,20.95,-3.15,-4.37,0,*45
1496131234.76,26523,20.88,74202.3,20.93,-3.07,-4.09,0,*4C
1496131235.98,26524,20.88,74200.3,20.91,-5.23,-6.13,0,*40
1496131237.19,26525,20.88,74202.5,20.91,-5.43,-6.27,0,*40
1496131238.42,26526,20.88,74204.5,20.89,-6.51,-6.93,0,*45
1496131239.65,26527,20.88,74204.5,20.85,-7.91,-8.17,0,*47
1496131240.89,26528,20.88,74200.5,20.81,-7.35,-6.59,0,*46
1496131242.16,26529,20.88,74204.0,20.81,-7.27,-5.89,0,*4A
1496131243.37,26530,20.88,74204.0,20.81,-6.05,-4.37,0,*47
1496131244.56,26531,20.88,74202.8,20.83,-4.09,-1.79,0,*45
1496131245.76,26532,20.88,74204.5,20.89,-2.27,0.43,0,*53
1496131246.99,26533,20.88,74204.0,20.93,-1.83,1.37,0,*66
1496131248.17,26534,20.88,74204.3,20.97,-0.77,2.91,0,*50
1496131249.35,26535,20.88,74208.8,21.01,0.17,4.19,0,*72
1496131250.5,26536,20.88,74202.0,21.05,0.01,4.23,0,*4B
1496131251.7,26537,20.88,74204.3,21.13,-0.81,3.79,0,*50
1496131252.94,26538,20.88,74204.0,21.15,-1.55,3.45,0,*6E
1496131254.17,26539,20.88,74204.0,21.17,-1.35,3.71,0,*6C
1496131255.36,26540,20.88,74206.5,21.19,-1.51,3.59,0,*64
1496131256.56,26541,20.88,74200.5,21.21,-1.25,3.97,0,*6F
1496131257.74,26542,20.88,74204.8,21.21,-0.37,4.89,0,*56
1496131258.93,26543,20.88,74206.8,21.21,-0.61,4.63,0,*50
1496131260.11,26544,20.88,74206.8,21.21,-0.73,4.41,0,*54
1496131261.34,26545,20.88,74202.3,21.23,0.55,5.67,0,*7B
1496131262.56,26546,20.88,74204.0,21.23,0.55,5.29,0,*72
1496131263.79,26547,20.88,74206.0,21.23,1.25,5.63,0,*4B
1496131264.98,26548,20.88,74204.3,21.21,0.13,4.33,0,*76
1496131266.24,26549,20.88,74204.0,21.23,0.87,5.05,0,*7C
1496131267.46,26550,20.88,74204.8,21.21,2.17,5.93,0,*42
1496131268.66,26551,20.88,74206.5,21.21,3.15,6.75,0,*4B
1496131269.87,26552,20.88,74204.5,21.23,4.27,7.55,0,*4F
1496131271.07,26553,20.88,74204.0,21.23,4.57,7.55,0,*49
1496131272.27,26554,20.88,74204.3,21.23,5.41,8.23,0,*46
1496131273.5,26555,20.88,74202.0,21.27,6.11,8.47,0,*47
1496131274.74,26556,20.88,74200.0,21.27,6.51,8.65,0,*40
1496131275.93,26557,20.88,74204.8,21.29,7.29,9.07,0,*44
1496131277.17,26558,20.88,74204.5,21.31,7.19,8.69,0,*48
1496131278.38,26559,20.88,74204.0,21.39,7.33,8.65,0,*45
1496131279.6,26560,20.88,74200.0,21.37,7.29,8.51,0,*4D
1496131280.79,26561,20.88,74202.5,21.37,6.79,7.79,0,*4D
1496131282.03,26562,20.88,74200.8,21.39,6.75,7.61,0,*45
1496131283.29,26563,20.88,74202.5,21.43,7.11,7.91,0,*45
1496131284.53,26564,20.88,74206.8,21.39,7.33,8.13,0,*4A
1496131285.77,26565,20.88,74206.5,21.39,6.47,6.83,0,*4E
1496131287.0,26566,20.88,74202.5,21.41,6.17,6.69,0,*43
1496131288.24,26567,20.88,74204.3,21.39,5.85,6.21,0,*49
1496131289.43,26568,20.88,74204.3,21.37,4.85,5.19,0,*41
1496131290.69,26569,20.88,74200.8,21.31,3.53,3.79,0,*4A
1496131291.96,26570,20.88,74204.0,21.27,3.67,3.79,0,*42
1496131293.17,26571,20.88,74202.5,21.25,4.41,4.59,0,*47
1496131294.36,26572,20.88,74200.5,21.21,5.71,5.93,0,*45
1496131295.56,26573,20.88,74200.8,21.21,5.81,5.95,0,*4D
1496131296.78,26574,20.88,74202.5,21.19,6.29,6.53,0,*49
1496131297.96,26575,20.88,74204.8,21.17,5.99,6.25,0,*4F
1496131299.18,26576,20.88,74204.3,21.17,5.93,6.13,0,*43
1496131300.39,26577,20.88,74202.3,21.17,6.21,6.39,0,*40
1496131301.56,26578,20.88,74204.0,21.17,5.45,5.59,0,*4B
1496131302.77,26579,20.88,74202.5,21.13,5.05,5.07,0,*41
1496131303.93,26580,20.88,74200.5,21.13,5.29,5.49,0,*43
1496131305.13,26581,20.88,74200.5,21.07,5.41,5.41,0,*41
1496131306.38,26582,20.88,74206.0,21.07,5.93,6.13,0,*49
1496131307.6,26583,20.88,74204.8,21.05,6.47,6.43,0,*45
1496131308.8,26584,20.88,74202.5,21.05,7.05,6.91,0,*4A
1496131310.01,26585,20.88,74204.3,21.05,6.87,6.69,0,*47
1496131311.21,26586,20.88,74204.8,21.05,6.43,6.11,0,*43
1496131312.41,26587,20.88,74202.5,21.05,6.53,6.11,0,*43
1496131313.62,26588,20.88,74202.5,21.03,5.77,5.29,0,*47
1496131314.88,26589,20.88,74202.0,21.03,6.35,5.77,0,*48
1496131316.13,26590,20.88,74204.5,21.03,6.53,5.85,0,*4D
1496131317.33,26591,20.88,74202.0,20.99,6.29,5.45,0,*4F
1496131318.51,26592,20.88,74202.3,21.01,5.41,4.45,0,*40
1496131319.7,26593,20.88,74204.3,20.97,6.03,5.07,0,*4D
1496131320.91,26594,20.88,74200.5,20.97,6.65,5.63,0,*48
1496131322.11,26595,20.88,74204.5,20.97,6.57,5.41,0,*48
1496131323.31,26596,20.88,74206.3,20.95,6.83,5.45,0,*44
1496131324.5,26597,20.88,74202.8,20.97,5.45,3.79,0,*47
1496131325.73,26598,20.88,74202.5,20.95,5.55,3.81,0,*4C
1496131326.95,26599,20.88,74202.5,20.93,5.51,3.75,0,*44
1496131328.12,26600,20.88,74200.0,20.91,5.67,3.55,0,*42
1496131329.3,26601,20.88,74202.5,20.91,5.33,2.99,0,*43
1496131330.52,26602,20.88,74206.3,20.91,4.75,2.21,0,*40
1496131331.74,26603,20.88,74206.0,20.89,5.11,2.55,0,*48
1496131332.99,26604,20.88,74206.5,20.85,4.75,2.13,0,*42
1496131334.24,26605,20.88,74204.3,20.85,4.01,1.17,0,*47
1496131335.48,26606,20.88,74206.5,20.81,4.79,2.21,0,*49
1496131336.68,26607,20.88,74206.5,20.81,4.81,2.31,0,*4E
1496131337.88,26608,20.88,74208.3,20.81,4.11,1.83,0,*42
1496131339.14,26609,20.88,74202.3,20.77,4.71,2.47,0,*47
1496131340.34,26610,20.88,74204.0,20.77,4.33,2.27,0,*4F
1496131341.57,26611,20.94,74210.0,20.77,3.41,1.41,0,*4F
1496131342.82,26612,20.88,74206.0,20.77,3.11,1.29,0,*47
1496131344.05,26613,20.88,74204.3,20.75,2.43,0.51,0,*7C
1496131345.28,26614,20.88,74208.0,20.73,1.09,-0.57,0,*5B
1496131346.49,26615,20.88,74206.0,20.69,1.41,0.05,0,*47
1496131347.72,26616,20.88,74206.5,20.69,1.75,0.83,0,*7D
1496131348.9,26617,20.94,74206.5,20.67,1.75,1.01,0,*49
1496131350.12,26618,20.88,74206.5,20.63,2.13,1.71,0,*46
1496131351.36,26619,20.88,74204.5,20.63,2.81,2.43,0,*4E
1496131352.57,26620,20.88,74206.5,20.63,2.91,2.59,0,*4E
1496131353.8,26621,20.88,74204.3,20.63,2.81,2.25,0,*45
1496131355.03,26622,20.88,74206.0,20.61,3.63,2.81,0,*47
1496131356.27,26623,20.88,74210.3,20.61,4.07,3.03,0,*48
1496131357.52,26624,20.88,74208.8,20.61,4.75,3.23,0,*48
1496131358.75,26625,20.88,74208.8,20.61,4.07,2.17,0,*4A
1496131360.01,26626,20.88,74204.3,20.59,3.41,1.37,0,*46
1496131361.24,26627,20.88,74206.0,20.59,4.67,2.61,0,*44
1496131362.45,26628,20.88,74206.5,20.59,4.85,2.61,0,*47
1496131363.68,26629,20.88,74204.8,20.55,3.33,1.01,0,*45
1496131364.93,26630,20.88,74206.5,20.55,3.67,1.13,0,*4F
1496131366.16,26631,20.88,74204.3,20.55,3.85,1.13,0,*42
1496131367.41,26632,20.88,74204.0,20.55,3.97,1.25,0,*47
1496131368.6,26633,20.88,74204.5,20.53,4.41,1.59,0,*47
1496131369.83,26634,20.88,74204.3,20.53,4.31,1.13,0,*49
1496131371.05,26635,20.88,74204.8,20.51,3.71,0.01,0,*4B
1496131372.28,26636,20.88,74204.0,20.51,4.07,0.13,0,*7D
1496131373.5,26637,20.94,74208.5,20.51,3.85,-0.23,0,*5F
1496131374.71,26638,20.88,74206.3,20.49,3.71,-0.77,0,*53
1496131375.96,26639,20.88,74206.5,20.47,3.45,-0.97,0,*55
1496131377.17,26640,20.88,74208.8,20.47,2.95,-1.55,0,*68
1496131378.41,26641,20.88,74204.0,20.47,2.43,-2.27,0,*64
1496131379.65,26642,20.88,74204.0,20.47,1.75,-2.59,0,*68
1496131380.87,26643,20.88,74208.0,20.45,0.95,-3.43,0,*5E
1496131382.09,26644,20.88,74206.5,20.43,-1.25,-6.09,0,*43
1496131383.31,26645,20.88,74210.5,20.39,-2.87,-7.83,0,*47
1496131384.56,26646,20.88,74206.8,20.35,-2.71,-7.19,0,*42
1496131385.75,26647,20.88,74208.8,20.33,-4.29,-8.71,0,*4F
1496131386.93,26648,20.88,74208.5,20.33,-4.49,-8.59,0,*4C
1496131388.15,26649,20.88,74204.3,20.29,-5.35,-9.37,0,*45
1496131389.38,26650,20.94,74208.5,20.29,-6.09,-9.45,0,*44
1496131390.59,26651,20.88,74208.5,20.25,-7.23,-9.97,0,*4F
1496131391.81,26652,20.88,74208.5,20.23,-7.95,-9.79,0,*47
1496131393.03,26653,20.88,74210.5,20.21,-7.87,-8.89,0,*49
1496131394.24,26654,20.88,74210.8,20.15,-6.39,-6.93,0,*48
1496131395.5,26655,20.88,74208.3,20.15,-5.65,-6.19,0,*41
1496131396.74,26656,20.88,74206.8,20.15,-4.81,-5.61,0,*45
1496131397.98,26657,20.88,74208.5,20.15,-4.21,-5.11,0,*49
1496131399.22,26658,20.88,74208.5,20.15,-4.93,-5.93,0,*45
1496131400.48,26659,20.94,74212.8,20.17,-5.61,-6.63,0,*46
1496131401.69,26660,20.88,74210.5,20.21,-7.15,-8.55,0,*43
1496131402.92,26661,20.88,74208.3,20.17,-8.97,-10.35,0,*7D
1496131404.16,26662,20.88,74210.0,20.17,-7.35,-8.17,0,*40
1496131405.4,26663,20.88,74208.8,20.17,-5.61,-6.39,0,*40
1496131406.61,26664,20.88,74208.8,20.25,-5.97,-6.69,0,*4A
1496131407.85,26665,20.88,74206.3,20.27,-6.19,-6.97,0,*4D
1496131409.07,26666,20.88,74210.5,20.31,-6.77,-7.53,0,*48
1496131410.32,26667,20.94,74210.5,20.33,-6.97,-7.39,0,*49
1496131411.58,26668,20.88,74208.5,20.39,-6.35,-5.85,0,*41
1496131412.82,26669,20.88,74210.0,20.45,-5.93,-4.77,0,*48
1496131414.03,26670,20.88,74210.0,20.45,-4.89,-3.87,0,*42
1496131415.22,26671,20.88,74206.5,20.53,-2.95,-2.19,0,*49
1496131416.47,26672,20.88,74210.5,20.59,-3.11,-2.71,0,*43
1496131417.69,26673,20.88,74210.3,20.63,-3.79,-3.59,0,*4E
1496131418.92,26674,20.88,74206.5,20.67,-4.57,-4.85,0,*40
1496131420.14,26675,20.88,74210.8,20.71,-4.29,-5.07,0,*44
1496131421.36,26676,20.88,74208.5,20.71,-5.81,-6.89,0,*41
1496131422.57,26677,20.94,74208.5,20.75,-6.69,-7.35,0,*47
1496131423.81,26678,20.88,74210.0,20.77,-7.77,-8.55,0,*4D
1496131425.02,26679,20.88,74206.5,20.77,-8.67,-8.71,0,*44
1496131426.23,26680,20.88,74206.0,20.77,-6.39,-6.01,0,*4E
1496131427.46,26681,20.88,74206.0,20.81,-4.65,-4.01,0,*4F
1496131428.7,26682,20.88,74210.8,20.89,-3.39,-2.63,0,*48
1496131429.92,26683,20.88,74206.8,20.95,-2.31,-1.51,0,*4F
1496131431.16,26684,20.88,74206.5,21.03,-2.15,-1.43,0,*43
1496131432.38,26685,20.94,74208.8,21.07,-1.67,-1.13,0,*45
1496131433.6,26686,20.88,74206.8,21.15,-1.17,-0.73,0,*75
1496131434.86,26687,20.88,74208.0,21.19,-2.07,-1.83,0,*44
1496131436.06,26688,20.88,74206.8,21.25,-0.41,-0.45,0,*4F
1496131437.27,26689,20.88,74206.3,21.27,-1.75,-2.27,0,*4C
1496131438.52,26690,20.94,74210.8,21.31,-2.59,-3.83,0,*41
1496131439.75,26691,20.94,74208.8,21.35,-2.79,-4.61,0,*4D
1496131440.94,26692,20.88,74206.8,21.37,-1.51,-3.83,0,*4E
1496131442.16,26693,20.88,74208.0,21.37,-1.79,-4.69,0,*46
1496131443.41,26694,20.88,74208.5,21.37,-1.91,-4.93,0,*42
1496131444.63,26695,20.88,74206.0,21.37,-1.63,-4.85,0,*49
1496131445.85,26696,20.88,74210.0,21.37,-2.31,-5.77,0,*42
1496131447.06,26697,20.88,74206.8,21.37,-3.39,-7.11,0,*48
1496131448.29,26698,20.88,74210.8,21.37,-5.39,-9.49,0,*42
1496131449.52,26699,20.94,74212.8,21.35,-6.43,-10.27,0,*7F
1496131450.77,26700,20.88,74208.3,21.29,-8.81,-12.61,0,*73
1496131451.99,26701,20.88,74208.5,21.25,-11.01,-14.23,0,*4E
1496131453.2,26702,20.94,74210.0,21.21,-9.31,-11.93,0,*7D
1496131454.45,26703,20.94,74210.5,21.19,-10.35,-12.61,0,*45
1496131455.68,26704,20.94,74208.3,21.17,-11.93,-13.65,0,*44
1496131456.92,26705,20.88,74206.0,21.13,-10.63,-11.77,0,*4E
1496131458.13,26706,20.94,74210.0,21.13,-7.49,-7.99,0,*44
1496131459.38,26707,20.88,74206.5,21.15,-7.91,-7.91,0,*4E
1496131460.62,26708,20.88,74206.3,21.19,-7.83,-7.43,0,*41
1496131461.83,26709,20.94,74208.3,21.23,-6.85,-6.13,0,*4A
1496131463.06,26710,20.88,74206.5,21.27,-6.77,-5.97,0,*44
1496131464.28,26711,20.88,74210.3,21.31,-7.49,-6.43,0,*44
1496131465.5,26712,20.94,74208.5,21.37,-7.91,-6.77,0,*43
1496131466.73,26713,20.88,74208.3,21.41,-7.11,-5.81,0,*41
1496131467.96,26714,20.94,74208.3,21.45,-6.93,-5.47,0,*43
1496131469.22,26715,20.88,74210.5,21.47,-6.39,-5.03,0,*40
1496131470.44,26716,20.94,74208.3,21.53,-6.01,-4.69,0,*40
1496131471.64,26717,20.88,74204.3,21.59,-7.15,-6.01,0,*43
1496131472.88,26718,20.88,74208.5,21.61,-8.03,-6.89,0,*4F
1496131474.08,26719,20.94,74208.0,21.63,-8.29,-7.23,0,*45
1496131475.3,26720,20.88,74204.0,21.63,-9.67,-8.81,0,*43
1496131476.53,26721,20.88,74208.8,21.63,-9.15,-8.41,0,*4B
1496131477.73,26722,20.94,74208.3,21.63,-8.93,-8.33,0,*42
1496131478.96,26723,20.88,74208.0,21.63,-9.75,-9.41,0,*4E
1496131480.19,26724,20.88,74206.0,21.65,-10.49,-10.31,0,*47
1496131481.42,26725,20.88,74208.8,21.65,-10.35,-10.09,0,*46
1496131482.63,26726,20.94,74208.8,21.65,-8.67,-8.59,0,*47
1496131483.85,26727,20.94,74208.5,21.67,-7.19,-7.01,0,*40
1496131485.09,26728,20.94,74210.5,21.67,-7.05,-7.01,0,*42
1496131486.29,26729,20.94,74208.0,21.71,-6.13,-6.13,0,*40
1496131487.5,26730,20.94,74208.5,21.75,-6.13,-6.23,0,*4F
1496131488.77,26731,20.94,74210.8,21.81,-7.05,-7.27,0,*46
1496131490.02,26732,20.88,74206.8,21.85,-8.11,-8.37,0,*45
1496131491.22,26733,20.94,74208.5,21.87,-6.31,-6.31,0,*42
1496131492.41,26734,20.94,74208.3,21.89,-5.35,-5.47,0,*4E
1496131493.63,26735,20.94,74210.8,21.93,-4.61,-4.81,0,*4F
1496131494.85,26736,20.94,74214.0,21.97,-5.03,-5.55,0,*45
1496131496.07,26737,20.94,74212.5,22.03,-4.09,-4.99,0,*40
1496131497.34,26738,20.94,74210.8,22.07,-5.81,-7.01,0,*48
1496131498.58,26739,20.88,74210.0,22.07,-7.39,-8.45,0,*47
1496131499.81,26740,20.94,74210.8,22.05,-9.11,-10.57,0,*75
1496131501.07,26741,20.88,74210.0,21.99,-10.27,-11.89,0,*4D
1496131502.26,26742,20.88,74206.0,21.97,-9.19,-11.23,0,*75
1496131503.52,26743,20.94,74212.5,21.91,-8.59,-10.79,0,*79
1496131504.76,26744,20.88,74210.0,21.91,-8.03,-10.05,0,*7A
1496131505.99,26745,20.94,74208.5,21.91,-8.59,-10.19,0,*79
1496131507.2,26746,20.94,74210.8,21.87,-8.75,-10.15,0,*7F
1496131508.45,26747,20.94,74210.3,21.85,-8.37,-9.45,0,*47
1496131509.66,26748,20.94,74210.5,21.83,-7.95,-9.27,0,*4D
1496131510.86,26749,20.94,74212.5,21.83,-7.15,-9.01,0,*40
1496131512.08,26750,20.94,74208.3,21.83,-6.81,-9.15,0,*41
1496131513.32,26751,20.94,74210.3,21.81,-6.13,-8.81,0,*45
1496131514.57,26752,20.88,74208.5,21.81,-6.35,-9.37,0,*4E
1496131515.82,26753,20.94,74214.0,21.79,-8.07,-11.33,0,*7A
1496131517.05,26754,20.94,74214.3,21.79,-8.59,-11.67,0,*77
1496131518.31,26755,20.88,74210.8,21.79,-9.41,-12.35,0,*7A
1496131519.54,26756,20.94,74212.5,21.73,-11.41,-14.33,0,*4A
1496131520.77,26757,20.88,74208.0,21.71,-12.61,-15.49,0,*44
1496131522.04,26758,20.88,74210.8,21.65,-11.73,-13.87,0,*4A
1496131523.25,26759,20.94,74210.8,21.63,-9.97,-12.03,0,*73
1496131524.49,26760,20.94,74212.3,21.61,-9.67,-11.33,0,*74
1496131525.73,26761,20.94,74212.5,21.59,-9.15,-10.53,0,*7C
1496131526.98,26762,20.94,74212.5,21.59,-7.99,-9.37,0,*4F
1496131528.18,26763,20.94,74212.5,21.59,-8.29,-10.01,0,*77
1496131529.41,26764,20.94,74210.8,21.59,-7.43,-9.89,0,*4B
1496131530.63,26765,20.94,74212.5,21.53,-7.31,-10.49,0,*71
1496131531.89,26766,20.94,74212.3,21.51,-10.75,-14.61,0,*48
1496131533.19,26767,20.94,74214.3,21.47,-12.35,-15.81,0,*47
1496131534.42,26768,20.94,74212.3,21.45,-11.19,-13.97,0,*46
1496131535.66,26769,20.94,74214.5,21.43,-10.35,-13.19,0,*48
1496131536.93,26770,20.94,74214.0,21.39,-11.63,-14.33,0,*40
1496131538.18,26771,20.94,74214.0,21.37,-11.81,-13.83,0,*4F
1496131539.44,26772,20.94,74212.3,21.35,-10.45,-11.93,0,*44
1496131540.65,26773,20.94,74212.5,21.37,-9.31,-10.15,0,*73
1496131541.89,26774,20.94,74212.3,21.35,-8.93,-10.15,0,*7F
1496131543.16,26775,20.94,74210.5,21.39,-10.71,-12.03,0,*42
1496131544.44,26776,20.94,74212.5,21.39,-11.51,-12.61,0,*46
1496131545.68,26777,20.94,74212.0,21.39,-11.15,-12.03,0,*43
1496131546.87,26778,20.94,74212.5,21.41,-8.45,-8.75,0,*44
1496131548.13,26779,20.94,74214.8,21.49,-7.57,-7.73,0,*48
1496131549.34,26780,20.94,74212.5,21.49,-7.31,-7.53,0,*4C
1496131550.59,26781,20.94,74208.5,21.57,-7.99,-8.37,0,*4D
1496131551.82,26782,20.94,74212.3,21.61,-8.17,-8.85,0,*4B
1496131553.04,26783,20.94,74212.5,21.63,-8.67,-9.61,0,*44
1496131554.29,26784,20.94,74210.0,21.67,-9.11,-9.83,0,*4B
1496131555.5,26785,20.94,74212.8,21.67,-8.81,-9.31,0,*4B
1496131556.75,26786,20.94,74212.3,21.71,-8.81,-9.11,0,*4D
1496131557.96,26787,20.94,74212.5,21.75,-8.51,-8.55,0,*44
1496131559.15,26788,20.94,74208.5,21.75,-8.37,-8.29,0,*40
1496131560.39,26789,20.94,74210.5,21.81,-7.15,-7.27,0,*44
1496131561.62,26790,20.94,74210.5,21.85,-6.81,-7.19,0,*49
1496131562.83,26791,20.94,74214.0,21.89,-6.63,-6.77,0,*41
1496131564.03,26792,20.94,74212.8,21.93,-6.77,-6.77,0,*4C
1496131565.25,26793,20.94,74210.0,21.97,-7.83,-8.07,0,*4A
1496131566.48,26794,20.94,74210.8,22.03,-8.55,-8.85,0,*4D
1496131567.75,26795,20.94,74208.3,22.03,-7.61,-7.77,0,*46
1496131569.0,26796,20.94,74210.3,22.07,-7.61,-7.87,0,*4E
1496131570.25,26797,20.94,74210.0,22.09,-7.57,-8.07,0,*43
1496131571.47,26798,20.94,74212.3,22.15,-8.41,-8.89,0,*4F
1496131572.71,26799,20.94,74212.3,22.15,-6.77,-7.31,0,*49
1496131573.96,26800,20.94,74212.0,22.19,-6.31,-6.97,0,*45
1496131575.2,26801,20.94,74212.0,22.25,-7.57,-8.25,0,*4D
1496131576.43,26802,20.94,74212.5,22.29,-8.03,-8.75,0,*49
1496131577.64,26803,20.94,74212.5,22.29,-8.25,-9.27,0,*4A
1496131578.88,26804,20.94,74212.8,22.33,-8.29,-9.41,0,*4A
1496131580.1,26805,20.94,74208.5,22.35,-8.55,-9.49,0,*4E
1496131581.33,26806,20.94,74210.8,22.37,-7.69,-8.63,0,*46
1496131582.55,26807,20.94,74208.3,22.39,-7.73,-8.55,0,*47
1496131583.77,26808,20.94,74208.8,22.47,-8.11,-9.01,0,*4A
1496131584.98,26809,20.94,74210.0,22.49,-7.87,-8.67,0,*44
1496131586.19,26810,20.94,74212.5,22.51,-7.77,-8.33,0,*4B
1496131587.43,26811,20.94,74210.8,22.53,-8.03,-8.71,0,*42
1496131588.65,26812,20.94,74210.5,22.57,-8.41,-8.85,0,*48
1496131589.91,26813,20.94,74208.8,22.59,-11.07,-11.73,0,*4C
1496131591.11,26814,20.94,74208.5,22.59,-12.47,-12.89,0,*4A
1496131592.39,26815,20.94,74206.5,22.57,-11.33,-11.73,0,*43
1496131593.67,26816,20.94,74206.8,22.57,-10.41,-10.79,0,*4F
1496131594.89,26817,20.94,74208.0,22.59,-9.11,-9.23,0,*4A
1496131596.08,26818,20.94,74206.0,22.63,-8.67,-8.93,0,*46
1496131597.33,26819,20.94,74212.0,22.65,-9.15,-9.31,0,*4C
1496131598.53,26820,20.94,74210.5,22.67,-8.45,-8.85,0,*4E
1496131599.75,26821,20.94,74206.5,22.73,-8.45,-8.97,0,*49
1496131601.0,26822,20.94,74204.8,22.77,-9.41,-10.09,0,*75
1496131602.24,26823,20.94,74210.5,22.75,-10.79,-11.41,0,*48
1496131603.51,26824,20.94,74208.8,22.77,-9.83,-10.63,0,*71
1496131604.73,26825,20.94,74208.0,22.77,-9.27,-10.23,0,*7A
1496131605.92,26826,20.94,74208.0,22.79,-10.05,-11.19,0,*47
1496131607.14,26827,20.94,74208.5,22.79,-10.49,-11.73,0,*42
1496131608.39,26828,20.94,74208.8,22.81,-11.67,-13.15,0,*45
1496131609.64,26829,20.94,74206.5,22.79,-13.61,-14.79,0,*4A
1496131610.92,26830,20.94,74208.0,22.77,-12.07,-13.01,0,*45
1496131612.18,26831,20.94,74208.8,22.75,-11.63,-12.11,0,*47
1496131613.4,26832,20.94,74206.8,22.77,-10.53,-11.19,0,*4F
1496131614.64,26833,20.94,74206.0,22.75,-10.15,-10.79,0,*49
1496131615.85,26834,20.94,74204.0,22.79,-9.19,-9.83,0,*4B
1496131617.1,26835,20.94,74208.0,22.81,-9.11,-9.79,0,*40
1496131618.33,26836,20.94,74208.0,22.81,-10.49,-11.45,0,*40
1496131619.57,26837,20.94,74210.3,22.83,-15.21,-16.23,0,*4F
1496131620.82,26838,20.94,74208.8,22.81,-11.97,-12.89,0,*4F
1496131622.05,26839,20.94,74208.5,22.79,-12.71,-13.55,0,*42
1496131623.3,26840,20.94,74204.5,22.81,-12.11,-13.23,0,*4C
1496131624.51,26841,20.94,74210.3,22.79,-14.19,-15.29,0,*48
1496131625.71,26842,20.94,74210.3,22.75,-13.65,-14.69,0,*4E
1496131626.95,26843,20.94,74208.3,22.75,-12.97,-14.05,0,*49
1496131628.21,26844,20.94,74210.0,22.75,-14.05,-15.21,0,*44
1496131629.49,26845,20.94,74210.0,22.73,-11.97,-13.01,0,*49
1496131630.73,26846,20.94,74208.5,22.71,-11.81,-13.01,0,*4F
1496131631.94,26847,20.94,74210.3,22.71,-12.97,-14.23,0,*4D
1496131633.17,26848,20.94,74210.5,22.75,-11.55,-12.97,0,*42
1496131634.43,26849,20.94,74212.5,22.73,-11.85,-13.51,0,*43
1496131635.64,26850,20.94,74206.5,22.71,-13.65,-15.29,0,*4C
1496131636.9,26851,20.94,74206.8,22.73,-11.01,-12.71,0,*45
1496131638.17,26852,20.94,74210.5,22.73,-10.19,-12.11,0,*48
1496131639.43,26853,20.94,74208.5,22.75,-10.71,-12.79,0,*4F
1496131640.67,26854,20.94,74208.0,22.77,-10.05,-12.07,0,*40
1496131641.9,26855,20.94,74208.0,22.81,-8.45,-10.49,0,*7D
1496131643.14,26856,20.94,74208.8,22.81,-7.49,-9.49,0,*45
1496131644.33,26857,20.94,74208.5,22.85,-7.15,-9.19,0,*4C
1496131645.56,26858,20.94,74206.3,22.89,-6.97,-9.27,0,*49
1496131646.77,26859,20.94,74210.0,22.97,-7.39,-9.79,0,*49
1496131648.03,26860,20.94,74210.8,22.97,-8.51,-10.79,0,*7A
1496131649.25,26861,20.94,74208.3,22.99,-8.67,-11.15,0,*7B
1496131650.47,26862,20.94,74210.8,23.01,-9.31,-11.81,0,*77
1496131651.72,26863,20.94,74208.5,23.03,-8.07,-10.53,0,*7E
1496131652.97,26864,20.94,74210.3,23.07,-10.63,-12.89,0,*43
1496131654.21,26865,20.94,74208.3,23.05,-9.57,-11.77,0,*7D
1496131655.44,26866,20.94,74214.5,23.05,-13.37,-15.67,0,*46
1496131656.66,26867,20.94,74206.8,23.05,-15.49,-17.93,0,*41
1496131657.93,26868,20.94,74210.0,22.99,-14.01,-16.59,0,*40
1496131659.15,26869,20.94,74208.3,22.97,-12.07,-13.93,0,*4C
1496131660.41,26870,20.94,74210.0,22.95,-12.79,-15.25,0,*44
1496131661.67,26871,20.94,74210.8,22.95,-13.73,-16.09,0,*43
1496131662.89,26872,20.94,74210.0,22.93,-12.65,-14.69,0,*44
1496131664.14,26873,20.94,74206.3,22.95,-11.51,-13.51,0,*4B
1496131665.38,26874,20.94,74210.5,22.95,-9.71,-11.51,0,*75
1496131666.63,26875,20.94,74210.3,22.97,-9.83,-11.63,0,*7A
1496131667.91,26876,20.94,74210.0,22.99,-9.53,-11.07,0,*78
1496131669.15,26877,20.94,74210.0,23.03,-11.55,-13.15,0,*45
1496131670.39,26878,20.94,74210.5,23.03,-11.45,-12.89,0,*4F
1496131671.64,26879,20.94,74204.3,23.03,-10.71,-12.03,0,*4A
1496131672.84,26880,20.94,74202.3,23.05,-10.23,-11.45,0,*4C
1496131674.09,26881,20.94,74210.0,23.07,-11.19,-12.35,0,*43
1496131675.29,26882,20.94,74208.0,23.09,-10.01,-11.01,0,*42
1496131676.52,26883,20.94,74204.5,23.11,-9.57,-10.85,0,*7C
1496131677.75,26884,20.94,74210.0,23.15,-9.75,-10.93,0,*78
1496131679.0,26885,20.94,74204.5,23.17,-11.63,-13.15,0,*48
1496131680.21,26886,20.94,74208.0,23.19,-11.23,-12.39,0,*4E
1496131681.43,26887,20.94,74204.5,23.19,-11.01,-12.29,0,*4E
1496131682.66,26888,20.94,74208.8,23.21,-10.31,-11.45,0,*41
1496131683.9,26889,20.94,74210.3,23.21,-13.65,-14.89,0,*47
1496131685.16,26890,20.94,74212.3,23.21,-15.39,-16.75,0,*41
1496131686.42,26891,20.94,74210.3,23.17,-14.01,-14.19,0,*47
1496131687.71,26892,20.94,74206.5,23.17,-11.29,-11.85,0,*4B
1496131688.94,26893,20.94,74208.5,23.19,-11.55,-12.29,0,*4A
1496131690.21,26894,20.94,74214.5,23.21,-10.97,-11.73,0,*45
1496131691.49,26895,20.94,74210.8,23.25,-16.17,-17.93,0,*46
1496131692.78,26896,20.94,74206.0,23.21,-14.83,-14.97,0,*49
1496131694.04,26897,20.94,74206.0,23.19,-11.93,-12.65,0,*4C
1496131695.33,26898,20.94,74204.3,23.21,-11.93,-12.57,0,*49
1496131696.53,26899,20.94,74206.3,23.23,-12.47,-13.23,0,*42
1496131697.76,26900,20.94,74206.3,23.25,-12.93,-13.69,0,*42
1496131699.01,26901,20.94,74204.3,23.25,-12.57,-13.15,0,*40
1496131700.29,26902,20.94,74208.3,23.25,-11.89,-12.57,0,*44
1496131701.52,26903,20.94,74210.5,23.27,-11.85,-12.43,0,*4E
1496131702.77,26904,20.94,74210.8,23.29,-11.81,-12.43,0,*43
1496131704.01,26905,20.94,74210.5,23.31,-13.73,-14.51,0,*41
1496131705.29,26906,20.94,74208.8,23.29,-15.43,-16.27,0,*4D
1496131706.54,26907,20.94,74210.5,23.29,-14.23,-14.89,0,*4D
1496131707.79,26908,20.94,74204.8,23.27,-11.93,-12.65,0,*46